N438SW KTRM-KASE

Flight info

Callsign N438SW
Flight time 3h 17m
Altitude 18000
Route MECCA1 TNP DICEE SLIPY LOYYD1
Aircraft C404/L-SDFR/C

Departure

Time 2026-05-07 17:23
Airport Jacqueline Cochran Regional Airport (KTRM)

Arrival

Time 2026-05-07 20:40
Airport Aspen-Pitkin County Airport (Sardy Field) (KASE)
Time Latitude Longitude Altitude Speed Heading
2026-05-07 17:00 33.63791 -116.15873 -106 ft 0 kts 267°
2026-05-07 17:18 33.63794 -116.15877 -97 ft 1 kts 352°
2026-05-07 17:18 33.63814 -116.15862 -106 ft 6 kts 10°
2026-05-07 17:18 33.63832 -116.15846 -105 ft 6 kts 40°
2026-05-07 17:18 33.63868 -116.15827 -105 ft 8 kts 22°
2026-05-07 17:19 33.63900 -116.15771 -105 ft 8 kts 73°
2026-05-07 17:19 33.63904 -116.15744 -105 ft 0 kts 91°
2026-05-07 17:21 33.63903 -116.15688 -105 ft 11 kts 91°
2026-05-07 17:21 33.63880 -116.15641 -106 ft 7 kts 179°
2026-05-07 17:22 33.63706 -116.15642 -106 ft 47 kts 179°
2026-05-07 17:22 33.63235 -116.15642 -117 ft 86 kts 180°
2026-05-07 17:22 33.62541 -116.15628 -90 ft 110 kts 177°
2026-05-07 17:22 33.61737 -116.15545 76 ft 118 kts 173°
2026-05-07 17:23 33.60930 -116.15408 318 ft 119 kts 170°
2026-05-07 17:23 33.60134 -116.15224 636 ft 113 kts 166°
2026-05-07 17:23 33.59386 -116.14998 930 ft 109 kts 162°
2026-05-07 17:23 33.58803 -116.14458 1180 ft 107 kts 131°
2026-05-07 17:24 33.58254 -116.13855 1431 ft 106 kts 137°
2026-05-07 17:24 33.57696 -116.13279 1681 ft 105 kts 139°
2026-05-07 17:24 33.57128 -116.12713 1915 ft 107 kts 140°
2026-05-07 17:24 33.56552 -116.12160 2165 ft 106 kts 140°
2026-05-07 17:25 33.55977 -116.11608 2403 ft 106 kts 140°
2026-05-07 17:25 33.55392 -116.11056 2637 ft 107 kts 141°
2026-05-07 17:25 33.54793 -116.10475 2805 ft 118 kts 139°
2026-05-07 17:25 33.54120 -116.09854 3033 ft 124 kts 140°
2026-05-07 17:26 33.53462 -116.09197 3270 ft 122 kts 124°
2026-05-07 17:26 33.52993 -116.08349 3495 ft 119 kts 103°
2026-05-07 17:26 33.53256 -116.07544 3610 ft 118 kts 29°
2026-05-07 17:26 33.53939 -116.07115 3924 ft 107 kts 10°
2026-05-07 17:27 33.54663 -116.07221 4202 ft 106 kts 338°
2026-05-07 17:27 33.55222 -116.07791 4470 ft 108 kts 314°
2026-05-07 17:27 33.55761 -116.08422 4708 ft 109 kts 320°
2026-05-07 17:27 33.56312 -116.09051 4965 ft 109 kts 321°
2026-05-07 17:28 33.56873 -116.09670 5221 ft 110 kts 320°
2026-05-07 17:28 33.57442 -116.10286 5498 ft 110 kts 321°
2026-05-07 17:28 33.58020 -116.10886 5763 ft 109 kts 335°
2026-05-07 17:28 33.58739 -116.10848 6005 ft 107 kts 24°
2026-05-07 17:29 33.59390 -116.10424 6311 ft 106 kts 26°
2026-05-07 17:29 33.60038 -116.10008 6567 ft 106 kts 27°
2026-05-07 17:29 33.60688 -116.09589 6824 ft 106 kts 26°
2026-05-07 17:29 33.61345 -116.09162 7077 ft 108 kts 27°
2026-05-07 17:30 33.62008 -116.08734 7340 ft 108 kts 27°
2026-05-07 17:30 33.62673 -116.08308 7610 ft 108 kts 27°
2026-05-07 17:30 33.63340 -116.07878 7867 ft 110 kts 27°
2026-05-07 17:30 33.64032 -116.07433 8074 ft 115 kts 28°
2026-05-07 17:31 33.64756 -116.06960 8316 ft 121 kts 28°
2026-05-07 17:31 33.65507 -116.06477 8580 ft 124 kts 28°
2026-05-07 17:31 33.66273 -116.05985 8862 ft 126 kts 30°
2026-05-07 17:31 33.67046 -116.05478 9146 ft 127 kts 30°
2026-05-07 17:32 33.67563 -116.05145 9338 ft 127 kts 30°
2026-05-07 17:32 33.68336 -116.04653 9598 ft 125 kts 30°
2026-05-07 17:32 33.69106 -116.04163 9851 ft 125 kts 30°
2026-05-07 17:32 33.69873 -116.03674 10065 ft 125 kts 30°
2026-05-07 17:33 33.70637 -116.03182 10285 ft 125 kts 30°
2026-05-07 17:33 33.71405 -116.02693 10493 ft 125 kts 30°
2026-05-07 17:33 33.72167 -116.02202 10734 ft 124 kts 31°
2026-05-07 17:33 33.72929 -116.01710 10975 ft 124 kts 30°
2026-05-07 17:34 33.73692 -116.01224 11204 ft 124 kts 30°
2026-05-07 17:34 33.74452 -116.00737 11423 ft 124 kts 30°
2026-05-07 17:34 33.75209 -116.00251 11626 ft 123 kts 30°
2026-05-07 17:34 33.75968 -115.99764 11828 ft 125 kts 30°
2026-05-07 17:35 33.76734 -115.99267 12007 ft 125 kts 30°
2026-05-07 17:35 33.77504 -115.98772 12193 ft 126 kts 30°
2026-05-07 17:35 33.78276 -115.98277 12373 ft 126 kts 30°
2026-05-07 17:35 33.79047 -115.97783 12554 ft 125 kts 30°
2026-05-07 17:36 33.79816 -115.97287 12735 ft 125 kts 30°
2026-05-07 17:36 33.80589 -115.96790 12905 ft 127 kts 30°
2026-05-07 17:36 33.81378 -115.96280 13010 ft 135 kts 30°
2026-05-07 17:36 33.82246 -115.95712 13013 ft 148 kts 31°
2026-05-07 17:37 33.83185 -115.95100 13016 ft 158 kts 30°
2026-05-07 17:37 33.84181 -115.94455 13014 ft 166 kts 30°
2026-05-07 17:37 33.85214 -115.93791 13012 ft 170 kts 30°
2026-05-07 17:37 33.86270 -115.93110 13010 ft 174 kts 30°
2026-05-07 17:38 33.87348 -115.92412 13003 ft 178 kts 30°
2026-05-07 17:38 33.88446 -115.91707 13003 ft 180 kts 30°
2026-05-07 17:38 33.89555 -115.90990 13009 ft 182 kts 30°
2026-05-07 17:38 33.90677 -115.90267 13007 ft 183 kts 30°
2026-05-07 17:39 33.91797 -115.89546 13008 ft 182 kts 30°
2026-05-07 17:39 33.92898 -115.88836 13003 ft 176 kts 30°
2026-05-07 17:39 33.93957 -115.88153 12994 ft 171 kts 31°
2026-05-07 17:39 33.95002 -115.87473 12991 ft 172 kts 30°
2026-05-07 17:40 33.96064 -115.86797 13000 ft 173 kts 30°
2026-05-07 17:40 33.97130 -115.86107 13000 ft 175 kts 30°
2026-05-07 17:40 33.98204 -115.85412 13000 ft 175 kts 30°
2026-05-07 17:40 33.99279 -115.84718 13005 ft 176 kts 30°
2026-05-07 17:41 34.00358 -115.84019 13006 ft 176 kts 30°
2026-05-07 17:41 34.01425 -115.83330 13001 ft 176 kts 30°
2026-05-07 17:41 34.02504 -115.82632 13010 ft 177 kts 30°
2026-05-07 17:41 34.03588 -115.81929 13010 ft 177 kts 30°
2026-05-07 17:42 34.04677 -115.81225 13009 ft 177 kts 30°
2026-05-07 17:42 34.05763 -115.80522 13009 ft 178 kts 30°
2026-05-07 17:42 34.06853 -115.79816 13010 ft 178 kts 30°
2026-05-07 17:42 34.07945 -115.79109 13009 ft 178 kts 30°
2026-05-07 17:43 34.09038 -115.78400 13011 ft 179 kts 30°
2026-05-07 17:43 34.10132 -115.77692 13011 ft 178 kts 30°
2026-05-07 17:43 34.11210 -115.76954 13019 ft 178 kts 38°
2026-05-07 17:43 34.12058 -115.75860 13002 ft 179 kts 50°
2026-05-07 17:44 34.12873 -115.74720 13001 ft 180 kts 49°
2026-05-07 17:44 34.13697 -115.73587 13001 ft 179 kts 49°
2026-05-07 17:44 34.14521 -115.72459 13001 ft 179 kts 49°
2026-05-07 17:44 34.15342 -115.71331 13001 ft 179 kts 49°
2026-05-07 17:45 34.16164 -115.70203 13003 ft 179 kts 49°
2026-05-07 17:45 34.16984 -115.69076 13002 ft 179 kts 49°
2026-05-07 17:45 34.17805 -115.67948 12997 ft 179 kts 49°
2026-05-07 17:45 34.18629 -115.66814 12999 ft 180 kts 49°
2026-05-07 17:46 34.19456 -115.65678 13000 ft 180 kts 49°
2026-05-07 17:46 34.20286 -115.64536 13001 ft 181 kts 49°
2026-05-07 17:46 34.21116 -115.63394 12997 ft 181 kts 49°
2026-05-07 17:46 34.21949 -115.62247 12997 ft 181 kts 49°
2026-05-07 17:47 34.22780 -115.61103 12991 ft 181 kts 49°
2026-05-07 17:47 34.23611 -115.59957 12991 ft 181 kts 49°
2026-05-07 17:47 34.24444 -115.58810 12984 ft 181 kts 49°
2026-05-07 17:47 34.25275 -115.57666 12983 ft 181 kts 49°
2026-05-07 17:48 34.26105 -115.56521 12982 ft 181 kts 49°
2026-05-07 17:48 34.26933 -115.55379 12980 ft 181 kts 49°
2026-05-07 17:48 34.27761 -115.54238 12978 ft 180 kts 49°
2026-05-07 17:48 34.28587 -115.53097 12977 ft 180 kts 49°
2026-05-07 17:49 34.29412 -115.51959 12980 ft 180 kts 49°
2026-05-07 17:49 34.30241 -115.50814 12975 ft 181 kts 50°
2026-05-07 17:49 34.31069 -115.49671 12974 ft 181 kts 49°
2026-05-07 17:49 34.31896 -115.48527 12977 ft 181 kts 50°
2026-05-07 17:50 34.32725 -115.47381 12971 ft 181 kts 50°
2026-05-07 17:50 34.33552 -115.46238 12973 ft 180 kts 49°
2026-05-07 17:50 34.34377 -115.45096 12972 ft 180 kts 49°
2026-05-07 17:50 34.35203 -115.43954 12973 ft 180 kts 50°
2026-05-07 17:51 34.36018 -115.42825 12973 ft 180 kts 49°
2026-05-07 17:51 34.36843 -115.41683 12972 ft 180 kts 49°
2026-05-07 17:51 34.37668 -115.40542 12971 ft 180 kts 50°
2026-05-07 17:51 34.38497 -115.39394 12972 ft 182 kts 49°
2026-05-07 17:52 34.39329 -115.38240 13049 ft 181 kts 50°
2026-05-07 17:52 34.40146 -115.37104 13186 ft 178 kts 50°
2026-05-07 17:52 34.40960 -115.35977 13312 ft 177 kts 50°
2026-05-07 17:52 34.41772 -115.34853 13437 ft 177 kts 50°
2026-05-07 17:53 34.42582 -115.33728 13553 ft 177 kts 50°
2026-05-07 17:53 34.43395 -115.32601 13696 ft 177 kts 50°
2026-05-07 17:53 34.44205 -115.31475 13804 ft 177 kts 50°
2026-05-07 17:53 34.45016 -115.30348 13928 ft 177 kts 50°
2026-05-07 17:54 34.45828 -115.29221 14033 ft 178 kts 50°
2026-05-07 17:54 34.46639 -115.28094 14144 ft 178 kts 50°
2026-05-07 17:54 34.47451 -115.26964 14262 ft 178 kts 50°
2026-05-07 17:54 34.48263 -115.25835 14368 ft 178 kts 50°
2026-05-07 17:55 34.49076 -115.24704 14477 ft 178 kts 50°
2026-05-07 17:55 34.49887 -115.23574 14602 ft 178 kts 50°
2026-05-07 17:55 34.50698 -115.22445 14713 ft 178 kts 50°
2026-05-07 17:55 34.51513 -115.21315 14842 ft 178 kts 50°
2026-05-07 17:56 34.52324 -115.20182 14953 ft 178 kts 50°
2026-05-07 17:56 34.53139 -115.19045 15062 ft 179 kts 50°
2026-05-07 17:56 34.53955 -115.17909 15177 ft 178 kts 50°
2026-05-07 17:56 34.54769 -115.16777 15259 ft 178 kts 50°
2026-05-07 17:57 34.55581 -115.15641 15397 ft 178 kts 51°
2026-05-07 17:57 34.56118 -115.14890 15476 ft 178 kts 50°
2026-05-07 17:57 34.57204 -115.13376 15654 ft 178 kts 50°
2026-05-07 17:57 34.58013 -115.12246 15774 ft 178 kts 50°
2026-05-07 17:58 34.58822 -115.11117 15907 ft 177 kts 51°
2026-05-07 17:58 34.59632 -115.09985 16033 ft 177 kts 50°
2026-05-07 17:58 34.60440 -115.08856 16159 ft 177 kts 50°
2026-05-07 17:58 34.61248 -115.07727 16275 ft 177 kts 51°
2026-05-07 17:59 34.62055 -115.06598 16405 ft 177 kts 50°
2026-05-07 17:59 34.62861 -115.05471 16535 ft 177 kts 51°
2026-05-07 17:59 34.63659 -115.04354 16656 ft 178 kts 50°
2026-05-07 17:59 34.64471 -115.03218 16796 ft 178 kts 51°
2026-05-07 18:00 34.65282 -115.02081 16939 ft 178 kts 51°
2026-05-07 18:00 34.66096 -115.00941 17074 ft 179 kts 51°
2026-05-07 18:00 34.66909 -114.99802 17203 ft 178 kts 51°
2026-05-07 18:00 34.67720 -114.98665 17347 ft 178 kts 51°
2026-05-07 18:01 34.68532 -114.97526 17479 ft 178 kts 51°
2026-05-07 18:01 34.69343 -114.96390 17610 ft 178 kts 51°
2026-05-07 18:01 34.70152 -114.95255 17743 ft 178 kts 51°
2026-05-07 18:01 34.70961 -114.94119 17861 ft 177 kts 51°
2026-05-07 18:02 34.72576 -114.91851 18103 ft 177 kts 51°
2026-05-07 18:02 34.73383 -114.90718 18222 ft 178 kts 51°
2026-05-07 18:02 34.74191 -114.89582 18334 ft 177 kts 51°
2026-05-07 18:03 34.74995 -114.88453 18434 ft 177 kts 51°
2026-05-07 18:03 34.75799 -114.87322 18535 ft 177 kts 51°
2026-05-07 18:03 34.76606 -114.86187 18640 ft 177 kts 51°
2026-05-07 18:03 34.77413 -114.85052 18740 ft 178 kts 51°
2026-05-07 18:04 34.78221 -114.83914 18841 ft 178 kts 50°
2026-05-07 18:04 34.79030 -114.82776 18940 ft 178 kts 51°
2026-05-07 18:04 34.79842 -114.81630 19004 ft 181 kts 51°
2026-05-07 18:04 34.80677 -114.80451 19008 ft 185 kts 51°
2026-05-07 18:05 34.81512 -114.79272 19009 ft 182 kts 51°
2026-05-07 18:05 34.82330 -114.78120 19001 ft 177 kts 51°
2026-05-07 18:05 34.83122 -114.77004 18991 ft 171 kts 50°
2026-05-07 18:05 34.83889 -114.75927 18993 ft 167 kts 50°
2026-05-07 18:06 34.84651 -114.74851 18992 ft 168 kts 50°
2026-05-07 18:06 34.85419 -114.73770 18994 ft 170 kts 50°
2026-05-07 18:06 34.86193 -114.72675 18994 ft 171 kts 50°
2026-05-07 18:06 34.86971 -114.71574 18995 ft 172 kts 50°
2026-05-07 18:07 34.87744 -114.70483 18997 ft 173 kts 50°
2026-05-07 18:07 34.88530 -114.69371 18999 ft 174 kts 50°
2026-05-07 18:07 34.89321 -114.68252 19001 ft 174 kts 50°
2026-05-07 18:07 34.90113 -114.67131 19001 ft 175 kts 50°
2026-05-07 18:08 34.90907 -114.66008 19002 ft 175 kts 50°
2026-05-07 18:08 34.91702 -114.64883 19003 ft 176 kts 50°
2026-05-07 18:08 34.92500 -114.63753 19002 ft 176 kts 50°
2026-05-07 18:08 34.93298 -114.62624 19000 ft 176 kts 50°
2026-05-07 18:09 34.94097 -114.61491 18996 ft 176 kts 50°
2026-05-07 18:09 34.94895 -114.60360 18995 ft 176 kts 50°
2026-05-07 18:09 34.95693 -114.59229 18992 ft 176 kts 50°
2026-05-07 18:09 34.96492 -114.58095 18969 ft 176 kts 50°
2026-05-07 18:10 34.97290 -114.56964 18969 ft 176 kts 50°
2026-05-07 18:10 34.98087 -114.55832 18968 ft 176 kts 50°
2026-05-07 18:10 34.98883 -114.54703 18968 ft 176 kts 50°
2026-05-07 18:10 34.99678 -114.53573 18967 ft 175 kts 50°
2026-05-07 18:11 35.00473 -114.52446 18965 ft 175 kts 50°
2026-05-07 18:11 35.00998 -114.51699 18964 ft 175 kts 50°
2026-05-07 18:11 35.02060 -114.50190 18962 ft 175 kts 50°
2026-05-07 18:11 35.02853 -114.49061 18961 ft 175 kts 50°
2026-05-07 18:12 35.03647 -114.47934 18960 ft 175 kts 50°
2026-05-07 18:12 35.04440 -114.46805 18960 ft 175 kts 50°
2026-05-07 18:12 35.05233 -114.45676 18960 ft 175 kts 50°
2026-05-07 18:12 35.06024 -114.44554 18966 ft 175 kts 50°
2026-05-07 18:13 35.06813 -114.43422 18963 ft 175 kts 50°
2026-05-07 18:13 35.07608 -114.42293 18961 ft 176 kts 50°
2026-05-07 18:13 35.08402 -114.41164 18961 ft 175 kts 50°
2026-05-07 18:13 35.09194 -114.40034 18960 ft 175 kts 50°
2026-05-07 18:14 35.09986 -114.38903 18958 ft 175 kts 50°
2026-05-07 18:14 35.10775 -114.37778 18962 ft 175 kts 50°
2026-05-07 18:14 35.11569 -114.36648 18949 ft 175 kts 50°
2026-05-07 18:14 35.12358 -114.35519 18954 ft 174 kts 50°
2026-05-07 18:15 35.13151 -114.34387 18952 ft 176 kts 50°
2026-05-07 18:15 35.13947 -114.33250 18952 ft 176 kts 50°
2026-05-07 18:15 35.14734 -114.32126 18951 ft 176 kts 50°
2026-05-07 18:15 35.15531 -114.30985 18952 ft 177 kts 50°
2026-05-07 18:16 35.16332 -114.29841 18984 ft 177 kts 50°
2026-05-07 18:16 35.17131 -114.28698 18991 ft 177 kts 50°
2026-05-07 18:16 35.17930 -114.27556 18998 ft 177 kts 50°
2026-05-07 18:16 35.18729 -114.26413 19013 ft 177 kts 50°
2026-05-07 18:17 35.19529 -114.25268 19017 ft 177 kts 50°
2026-05-07 18:17 35.20330 -114.24120 19025 ft 177 kts 50°
2026-05-07 18:17 35.21133 -114.22970 19031 ft 178 kts 50°
2026-05-07 18:17 35.21936 -114.21819 19036 ft 178 kts 50°
2026-05-07 18:18 35.22740 -114.20667 19041 ft 178 kts 50°
2026-05-07 18:18 35.23544 -114.19513 19047 ft 178 kts 50°
2026-05-07 18:18 35.24349 -114.18358 19055 ft 178 kts 50°
2026-05-07 18:18 35.25154 -114.17204 19060 ft 179 kts 50°
2026-05-07 18:19 35.25959 -114.16049 19069 ft 178 kts 50°
2026-05-07 18:19 35.26765 -114.14891 19074 ft 179 kts 50°
2026-05-07 18:19 35.27574 -114.13730 19080 ft 180 kts 50°
2026-05-07 18:19 35.28384 -114.12563 19085 ft 180 kts 50°
2026-05-07 18:20 35.29197 -114.11396 19089 ft 180 kts 49°
2026-05-07 18:20 35.29735 -114.10623 19091 ft 180 kts 50°
2026-05-07 18:20 35.30545 -114.09456 19098 ft 180 kts 50°
2026-05-07 18:20 35.31357 -114.08289 19100 ft 179 kts 50°
2026-05-07 18:21 35.32166 -114.07125 19101 ft 180 kts 50°
2026-05-07 18:21 35.32976 -114.05959 19105 ft 180 kts 50°
2026-05-07 18:21 35.33787 -114.04791 19106 ft 180 kts 50°
2026-05-07 18:21 35.34598 -114.03622 19105 ft 180 kts 50°
2026-05-07 18:22 35.35409 -114.02455 19107 ft 180 kts 50°
2026-05-07 18:22 35.35945 -114.01681 19106 ft 180 kts 50°
2026-05-07 18:22 35.37030 -114.00117 19104 ft 180 kts 50°
2026-05-07 18:22 35.37841 -113.98946 19101 ft 180 kts 50°
2026-05-07 18:23 35.38653 -113.97774 19097 ft 181 kts 50°
2026-05-07 18:23 35.39467 -113.96601 19093 ft 180 kts 50°
2026-05-07 18:23 35.40277 -113.95429 19088 ft 180 kts 50°
2026-05-07 18:23 35.41088 -113.94258 19084 ft 180 kts 50°
2026-05-07 18:24 35.41899 -113.93086 19082 ft 180 kts 50°
2026-05-07 18:24 35.42711 -113.91913 19076 ft 181 kts 50°
2026-05-07 18:24 35.43523 -113.90739 19069 ft 181 kts 50°
2026-05-07 18:24 35.44334 -113.89565 19063 ft 180 kts 50°
2026-05-07 18:25 35.45146 -113.88392 19059 ft 180 kts 50°
2026-05-07 18:25 35.45955 -113.87220 19056 ft 180 kts 50°
2026-05-07 18:25 35.46764 -113.86048 19048 ft 180 kts 50°
2026-05-07 18:25 35.47572 -113.84878 19043 ft 180 kts 50°
2026-05-07 18:26 35.48379 -113.83708 19039 ft 180 kts 50°
2026-05-07 18:26 35.49177 -113.82552 19032 ft 180 kts 50°
2026-05-07 18:26 35.49985 -113.81381 19024 ft 180 kts 50°
2026-05-07 18:26 35.50803 -113.80194 19017 ft 180 kts 50°
2026-05-07 18:27 35.51600 -113.79037 19011 ft 180 kts 50°
2026-05-07 18:27 35.52407 -113.77867 19005 ft 180 kts 49°
2026-05-07 18:27 35.53216 -113.76693 18996 ft 180 kts 49°
2026-05-07 18:27 35.54024 -113.75518 18989 ft 180 kts 49°
2026-05-07 18:28 35.54833 -113.74345 18995 ft 180 kts 49°
2026-05-07 18:28 35.55644 -113.73165 18987 ft 181 kts 49°
2026-05-07 18:28 35.56456 -113.71983 18983 ft 181 kts 49°
2026-05-07 18:28 35.57271 -113.70797 18980 ft 182 kts 49°
2026-05-07 18:29 35.58088 -113.69608 18980 ft 182 kts 49°
2026-05-07 18:29 35.58907 -113.68417 18987 ft 182 kts 49°
2026-05-07 18:29 35.59726 -113.67225 18987 ft 183 kts 49°
2026-05-07 18:29 35.60545 -113.66031 18986 ft 183 kts 49°
2026-05-07 18:30 35.61366 -113.64835 18989 ft 183 kts 49°
2026-05-07 18:30 35.62187 -113.63639 18988 ft 183 kts 49°
2026-05-07 18:30 35.63008 -113.62441 18987 ft 183 kts 49°
2026-05-07 18:30 35.63827 -113.61246 18992 ft 183 kts 49°
2026-05-07 18:31 35.64646 -113.60053 18994 ft 183 kts 49°
2026-05-07 18:31 35.65466 -113.58856 18992 ft 183 kts 49°
2026-05-07 18:31 35.66285 -113.57659 18991 ft 183 kts 49°
2026-05-07 18:31 35.67105 -113.56461 18991 ft 183 kts 49°
2026-05-07 18:32 35.67924 -113.55266 18989 ft 183 kts 49°
2026-05-07 18:32 35.68741 -113.54070 18988 ft 183 kts 49°
2026-05-07 18:32 35.69560 -113.52873 18987 ft 183 kts 49°
2026-05-07 18:32 35.70378 -113.51677 18990 ft 183 kts 49°
2026-05-07 18:33 35.71195 -113.50482 18987 ft 182 kts 49°
2026-05-07 18:33 35.72012 -113.49287 19002 ft 183 kts 49°
2026-05-07 18:33 35.72829 -113.48091 18999 ft 182 kts 50°
2026-05-07 18:33 35.73644 -113.46897 19000 ft 182 kts 49°
2026-05-07 18:34 35.74462 -113.45697 19003 ft 183 kts 49°
2026-05-07 18:34 35.75285 -113.44492 19003 ft 184 kts 50°
2026-05-07 18:34 35.76114 -113.43276 19003 ft 186 kts 50°
2026-05-07 18:34 35.76939 -113.42068 19020 ft 184 kts 49°
2026-05-07 18:35 35.77780 -113.40835 19003 ft 190 kts 49°
2026-05-07 18:35 35.78624 -113.39590 19003 ft 189 kts 49°
2026-05-07 18:35 35.79465 -113.38352 19000 ft 188 kts 50°
2026-05-07 18:35 35.80313 -113.37115 19002 ft 189 kts 49°
2026-05-07 18:36 35.81155 -113.35871 19017 ft 188 kts 50°
2026-05-07 18:36 35.81982 -113.34653 19015 ft 188 kts 49°
2026-05-07 18:36 35.82822 -113.33422 19013 ft 188 kts 49°
2026-05-07 18:36 35.83658 -113.32195 19010 ft 186 kts 50°
2026-05-07 18:37 35.84485 -113.30980 19016 ft 185 kts 49°
2026-05-07 18:37 35.85311 -113.29761 19015 ft 186 kts 49°
2026-05-07 18:37 35.86140 -113.28546 19020 ft 184 kts 49°
2026-05-07 18:37 35.86961 -113.27332 19019 ft 185 kts 49°
2026-05-07 18:38 35.87787 -113.26113 19012 ft 185 kts 49°
2026-05-07 18:38 35.88606 -113.24896 19022 ft 184 kts 49°
2026-05-07 18:38 35.89430 -113.23689 19018 ft 184 kts 49°
2026-05-07 18:38 35.90256 -113.22481 19033 ft 184 kts 49°
2026-05-07 18:39 35.91079 -113.21265 19039 ft 185 kts 49°
2026-05-07 18:39 35.91903 -113.20041 19036 ft 185 kts 49°
2026-05-07 18:39 35.92730 -113.18822 19038 ft 186 kts 49°
2026-05-07 18:39 35.93559 -113.17596 19039 ft 186 kts 49°
2026-05-07 18:40 35.94387 -113.16371 19039 ft 186 kts 49°
2026-05-07 18:40 35.95217 -113.15147 19039 ft 186 kts 49°
2026-05-07 18:40 35.96046 -113.13920 19036 ft 186 kts 49°
2026-05-07 18:40 35.96872 -113.12698 19035 ft 185 kts 49°
2026-05-07 18:41 35.97699 -113.11475 19034 ft 185 kts 49°
2026-05-07 18:41 35.98526 -113.10251 19051 ft 186 kts 49°
2026-05-07 18:41 35.99352 -113.09026 19049 ft 185 kts 49°
2026-05-07 18:41 36.00179 -113.07801 19047 ft 186 kts 49°
2026-05-07 18:42 36.01005 -113.06579 19045 ft 185 kts 49°
2026-05-07 18:42 36.01828 -113.05357 19043 ft 185 kts 49°
2026-05-07 18:42 36.02654 -113.04136 19044 ft 185 kts 49°
2026-05-07 18:42 36.03479 -113.02911 19043 ft 185 kts 49°
2026-05-07 18:43 36.04302 -113.01685 19044 ft 185 kts 49°
2026-05-07 18:43 36.05126 -113.00462 19041 ft 185 kts 49°
2026-05-07 18:43 36.05949 -112.99240 19040 ft 185 kts 49°
2026-05-07 18:43 36.06761 -112.98034 19042 ft 185 kts 49°
2026-05-07 18:44 36.07583 -112.96813 19046 ft 185 kts 49°
2026-05-07 18:44 36.08407 -112.95589 19049 ft 186 kts 49°
2026-05-07 18:44 36.09231 -112.94362 19049 ft 185 kts 49°
2026-05-07 18:44 36.10053 -112.93139 19048 ft 185 kts 49°
2026-05-07 18:45 36.10874 -112.91916 19046 ft 185 kts 49°
2026-05-07 18:45 36.11694 -112.90696 19051 ft 185 kts 49°
2026-05-07 18:45 36.12515 -112.89474 19051 ft 185 kts 49°
2026-05-07 18:45 36.13336 -112.88251 19050 ft 185 kts 49°
2026-05-07 18:46 36.14156 -112.87029 19049 ft 185 kts 49°
2026-05-07 18:46 36.14976 -112.85805 19048 ft 185 kts 49°
2026-05-07 18:46 36.15796 -112.84580 19052 ft 185 kts 49°
2026-05-07 18:46 36.16616 -112.83359 19054 ft 185 kts 49°
2026-05-07 18:47 36.17435 -112.82135 19053 ft 185 kts 49°
2026-05-07 18:47 36.18255 -112.80911 19053 ft 184 kts 49°
2026-05-07 18:47 36.19073 -112.79690 19054 ft 184 kts 49°
2026-05-07 18:47 36.19890 -112.78469 19054 ft 184 kts 49°
2026-05-07 18:48 36.20709 -112.77245 19057 ft 185 kts 49°
2026-05-07 18:48 36.21533 -112.76012 19055 ft 186 kts 49°
2026-05-07 18:48 36.22359 -112.74776 19057 ft 187 kts 49°
2026-05-07 18:48 36.23188 -112.73535 19053 ft 187 kts 48°
2026-05-07 18:49 36.24014 -112.72301 19058 ft 186 kts 49°
2026-05-07 18:49 36.24838 -112.71065 19066 ft 186 kts 49°
2026-05-07 18:49 36.25662 -112.69827 19066 ft 187 kts 49°
2026-05-07 18:49 36.26477 -112.68604 19075 ft 181 kts 49°
2026-05-07 18:50 36.27286 -112.67395 19064 ft 182 kts 49°
2026-05-07 18:50 36.28100 -112.66180 19064 ft 184 kts 49°
2026-05-07 18:50 36.28916 -112.64954 19067 ft 185 kts 49°
2026-05-07 18:50 36.29737 -112.63719 19068 ft 186 kts 49°
2026-05-07 18:51 36.30562 -112.62480 19070 ft 186 kts 49°
2026-05-07 18:51 36.31388 -112.61238 19074 ft 187 kts 49°
2026-05-07 18:51 36.32226 -112.59992 19068 ft 189 kts 49°
2026-05-07 18:51 36.33055 -112.58728 19077 ft 189 kts 49°
2026-05-07 18:52 36.33891 -112.57469 19075 ft 190 kts 49°
2026-05-07 18:52 36.34742 -112.56195 19080 ft 193 kts 49°
2026-05-07 18:52 36.35602 -112.54900 19082 ft 196 kts 49°
2026-05-07 18:52 36.36475 -112.53584 19082 ft 198 kts 49°
2026-05-07 18:53 36.37353 -112.52261 19083 ft 200 kts 49°
2026-05-07 18:53 36.38240 -112.50922 19083 ft 202 kts 49°
2026-05-07 18:53 36.39126 -112.49578 19083 ft 200 kts 49°
2026-05-07 18:53 36.40010 -112.48251 19075 ft 199 kts 49°
2026-05-07 18:54 36.40882 -112.46960 19071 ft 197 kts 49°
2026-05-07 18:54 36.41746 -112.45637 19079 ft 197 kts 49°
2026-05-07 18:54 36.42618 -112.44318 19073 ft 198 kts 49°
2026-05-07 18:54 36.43492 -112.42999 19070 ft 198 kts 48°
2026-05-07 18:55 36.44366 -112.41682 19071 ft 198 kts 49°
2026-05-07 18:55 36.45242 -112.40358 19072 ft 199 kts 49°
2026-05-07 18:55 36.46117 -112.39033 19072 ft 198 kts 49°
2026-05-07 18:55 36.46995 -112.37708 19071 ft 198 kts 49°
2026-05-07 18:56 36.47869 -112.36385 19070 ft 198 kts 49°
2026-05-07 18:56 36.48742 -112.35060 19071 ft 198 kts 49°
2026-05-07 18:56 36.49619 -112.33733 19074 ft 199 kts 49°
2026-05-07 18:56 36.50496 -112.32406 19083 ft 199 kts 48°
2026-05-07 18:57 36.51373 -112.31077 19081 ft 199 kts 48°
2026-05-07 18:57 36.52252 -112.29744 19081 ft 199 kts 48°
2026-05-07 18:57 36.53130 -112.28412 19078 ft 199 kts 48°
2026-05-07 18:57 36.54008 -112.27081 19078 ft 199 kts 48°
2026-05-07 18:58 36.54886 -112.25748 19080 ft 199 kts 48°
2026-05-07 18:58 36.55765 -112.24414 19082 ft 199 kts 48°
2026-05-07 18:58 36.56643 -112.23078 19073 ft 200 kts 48°
2026-05-07 18:58 36.57522 -112.21742 19079 ft 200 kts 48°
2026-05-07 18:59 36.58404 -112.20402 19081 ft 200 kts 48°
2026-05-07 18:59 36.59285 -112.19062 19076 ft 200 kts 48°
2026-05-07 18:59 36.60166 -112.17721 19075 ft 200 kts 48°
2026-05-07 18:59 36.61048 -112.16381 19079 ft 200 kts 48°
2026-05-07 19:00 36.61927 -112.15041 19077 ft 200 kts 48°
2026-05-07 19:00 36.62808 -112.13699 19078 ft 200 kts 48°
2026-05-07 19:00 36.63686 -112.12358 19082 ft 200 kts 48°
2026-05-07 19:00 36.64557 -112.11033 19079 ft 200 kts 48°
2026-05-07 19:01 36.65439 -112.09689 19076 ft 201 kts 48°
2026-05-07 19:01 36.66320 -112.08343 19074 ft 200 kts 48°
2026-05-07 19:01 36.67201 -112.06998 19075 ft 200 kts 48°
2026-05-07 19:01 36.68084 -112.05652 19059 ft 200 kts 48°
2026-05-07 19:02 36.68964 -112.04305 19059 ft 201 kts 48°
2026-05-07 19:02 36.69846 -112.02959 19060 ft 201 kts 48°
2026-05-07 19:02 36.70726 -112.01611 19062 ft 200 kts 48°
2026-05-07 19:02 36.71605 -112.00269 19060 ft 200 kts 48°
2026-05-07 19:03 36.72481 -111.98928 19061 ft 200 kts 48°
2026-05-07 19:03 36.73358 -111.97586 19059 ft 199 kts 48°
2026-05-07 19:03 36.74233 -111.96247 19059 ft 199 kts 48°
2026-05-07 19:03 36.75107 -111.94907 19063 ft 199 kts 48°
2026-05-07 19:04 36.75982 -111.93567 19057 ft 199 kts 48°
2026-05-07 19:04 36.76853 -111.92231 19049 ft 199 kts 48°
2026-05-07 19:04 36.77727 -111.90893 19051 ft 199 kts 48°
2026-05-07 19:04 36.78601 -111.89550 19047 ft 199 kts 48°
2026-05-07 19:05 36.79476 -111.88207 19048 ft 199 kts 48°
2026-05-07 19:05 36.80350 -111.86865 19046 ft 199 kts 48°
2026-05-07 19:05 36.81224 -111.85521 19049 ft 200 kts 48°
2026-05-07 19:05 36.82100 -111.84176 19051 ft 199 kts 48°
2026-05-07 19:06 36.82973 -111.82832 19050 ft 200 kts 47°
2026-05-07 19:06 36.84732 -111.80129 19050 ft 201 kts 47°
2026-05-07 19:06 36.85610 -111.78775 19050 ft 201 kts 47°
2026-05-07 19:07 36.86494 -111.77415 19047 ft 202 kts 47°
2026-05-07 19:07 36.87378 -111.76053 19045 ft 202 kts 47°
2026-05-07 19:07 36.88262 -111.74690 19047 ft 202 kts 47°
2026-05-07 19:07 36.89148 -111.73325 19044 ft 202 kts 47°
2026-05-07 19:08 36.90033 -111.71959 19044 ft 202 kts 47°
2026-05-07 19:08 36.90918 -111.70593 19039 ft 202 kts 47°
2026-05-07 19:08 36.91801 -111.69230 19037 ft 202 kts 47°
2026-05-07 19:08 36.92686 -111.67864 19039 ft 202 kts 47°
2026-05-07 19:09 36.93272 -111.66959 19039 ft 202 kts 47°
2026-05-07 19:09 36.94460 -111.65136 19038 ft 203 kts 47°
2026-05-07 19:09 36.95046 -111.64223 19043 ft 203 kts 48°
2026-05-07 19:09 36.95929 -111.62842 19038 ft 203 kts 47°
2026-05-07 19:10 36.96816 -111.61474 19040 ft 202 kts 47°
2026-05-07 19:10 36.97699 -111.60110 19036 ft 202 kts 47°
2026-05-07 19:10 36.98582 -111.58745 19037 ft 202 kts 47°
2026-05-07 19:10 36.99461 -111.57382 19039 ft 201 kts 47°
2026-05-07 19:11 37.00342 -111.56018 19151 ft 201 kts 47°
2026-05-07 19:11 37.01219 -111.54658 19153 ft 201 kts 47°
2026-05-07 19:11 37.02096 -111.53298 19153 ft 201 kts 47°
2026-05-07 19:11 37.02975 -111.51933 19150 ft 201 kts 47°
2026-05-07 19:12 37.03853 -111.50571 19153 ft 201 kts 47°
2026-05-07 19:12 37.04729 -111.49208 19147 ft 201 kts 47°
2026-05-07 19:12 37.05605 -111.47848 19145 ft 200 kts 47°
2026-05-07 19:12 37.06482 -111.46491 19141 ft 201 kts 47°
2026-05-07 19:13 37.07356 -111.45129 19142 ft 201 kts 47°
2026-05-07 19:13 37.08230 -111.43765 19135 ft 201 kts 47°
2026-05-07 19:13 37.09108 -111.42400 19136 ft 202 kts 47°
2026-05-07 19:13 37.09992 -111.41030 19131 ft 203 kts 47°
2026-05-07 19:14 37.10874 -111.39651 19123 ft 203 kts 47°
2026-05-07 19:14 37.11757 -111.38274 19115 ft 203 kts 47°
2026-05-07 19:14 37.12641 -111.36897 19110 ft 203 kts 47°
2026-05-07 19:14 37.13522 -111.35522 19101 ft 202 kts 47°
2026-05-07 19:15 37.14403 -111.34152 19100 ft 202 kts 47°
2026-05-07 19:15 37.15285 -111.32774 19097 ft 203 kts 47°
2026-05-07 19:15 37.16156 -111.31409 19090 ft 203 kts 47°
2026-05-07 19:15 37.17048 -111.30014 19086 ft 202 kts 47°
2026-05-07 19:16 37.17922 -111.28657 19076 ft 203 kts 47°
2026-05-07 19:16 37.18807 -111.27275 19068 ft 203 kts 47°
2026-05-07 19:16 37.19690 -111.25891 19064 ft 203 kts 47°
2026-05-07 19:16 37.20573 -111.24507 19059 ft 203 kts 47°
2026-05-07 19:17 37.21457 -111.23126 19055 ft 203 kts 47°
2026-05-07 19:17 37.22217 -111.21622 19066 ft 208 kts 61°
2026-05-07 19:17 37.22771 -111.19946 19058 ft 208 kts 63°
2026-05-07 19:17 37.23330 -111.18272 19054 ft 208 kts 62°
2026-05-07 19:18 37.23901 -111.16600 19054 ft 209 kts 62°
2026-05-07 19:18 37.24470 -111.14932 19064 ft 206 kts 62°
2026-05-07 19:18 37.25034 -111.13279 19054 ft 206 kts 62°
2026-05-07 19:18 37.25600 -111.11624 19055 ft 207 kts 62°
2026-05-07 19:19 37.26167 -111.09954 19052 ft 208 kts 62°
2026-05-07 19:19 37.26737 -111.08279 19055 ft 209 kts 62°
2026-05-07 19:19 37.27308 -111.06593 19056 ft 210 kts 62°
2026-05-07 19:19 37.27883 -111.04900 19058 ft 211 kts 62°
2026-05-07 19:20 37.28461 -111.03198 19061 ft 212 kts 62°
2026-05-07 19:20 37.29040 -111.01490 19056 ft 213 kts 62°
2026-05-07 19:20 37.29619 -110.99783 19051 ft 212 kts 62°
2026-05-07 19:20 37.30196 -110.98078 19052 ft 212 kts 62°
2026-05-07 19:21 37.30774 -110.96373 19047 ft 212 kts 62°
2026-05-07 19:21 37.31350 -110.94672 19045 ft 212 kts 62°
2026-05-07 19:21 37.31924 -110.92976 19042 ft 211 kts 62°
2026-05-07 19:21 37.32498 -110.91281 19039 ft 211 kts 62°
2026-05-07 19:22 37.33072 -110.89579 19041 ft 212 kts 63°
2026-05-07 19:22 37.33645 -110.87881 19040 ft 211 kts 62°
2026-05-07 19:22 37.34220 -110.86180 19040 ft 212 kts 63°
2026-05-07 19:22 37.34795 -110.84475 19038 ft 212 kts 63°
2026-05-07 19:23 37.35370 -110.82767 19040 ft 212 kts 63°
2026-05-07 19:23 37.35944 -110.81064 19039 ft 212 kts 63°
2026-05-07 19:23 37.36519 -110.79359 19042 ft 212 kts 63°
2026-05-07 19:23 37.37096 -110.77646 19041 ft 212 kts 63°
2026-05-07 19:24 37.37670 -110.75937 19039 ft 212 kts 63°
2026-05-07 19:24 37.38245 -110.74227 19034 ft 213 kts 62°
2026-05-07 19:24 37.38821 -110.72517 19041 ft 212 kts 63°
2026-05-07 19:24 37.39390 -110.70813 19040 ft 212 kts 63°
2026-05-07 19:25 37.39962 -110.69109 19037 ft 211 kts 63°
2026-05-07 19:25 37.40535 -110.67405 19041 ft 212 kts 63°
2026-05-07 19:25 37.41108 -110.65696 19039 ft 212 kts 63°
2026-05-07 19:25 37.41681 -110.63982 19039 ft 213 kts 63°
2026-05-07 19:26 37.42255 -110.62270 19041 ft 212 kts 63°
2026-05-07 19:26 37.42827 -110.60560 19044 ft 212 kts 63°
2026-05-07 19:26 37.43399 -110.58849 19043 ft 212 kts 63°
2026-05-07 19:26 37.43970 -110.57140 19044 ft 212 kts 63°
2026-05-07 19:27 37.44541 -110.55430 19045 ft 212 kts 63°
2026-05-07 19:27 37.45114 -110.53717 19045 ft 212 kts 63°
2026-05-07 19:27 37.45684 -110.52005 19042 ft 212 kts 63°
2026-05-07 19:27 37.46256 -110.50292 19044 ft 212 kts 63°
2026-05-07 19:28 37.46827 -110.48577 19045 ft 213 kts 63°
2026-05-07 19:28 37.47401 -110.46855 19059 ft 214 kts 63°
2026-05-07 19:28 37.47977 -110.45123 19059 ft 215 kts 63°
2026-05-07 19:28 37.48554 -110.43388 19056 ft 215 kts 63°
2026-05-07 19:29 37.49130 -110.41655 19058 ft 215 kts 63°
2026-05-07 19:29 37.49706 -110.39920 19058 ft 215 kts 63°
2026-05-07 19:29 37.50283 -110.38186 19053 ft 214 kts 63°
2026-05-07 19:29 37.50856 -110.36456 19049 ft 215 kts 63°
2026-05-07 19:30 37.51436 -110.34712 19054 ft 217 kts 63°
2026-05-07 19:30 37.52020 -110.32948 19068 ft 220 kts 63°
2026-05-07 19:30 37.52601 -110.31192 19064 ft 220 kts 63°
2026-05-07 19:30 37.53187 -110.29414 19072 ft 221 kts 63°
2026-05-07 19:31 37.53790 -110.27597 19071 ft 223 kts 63°
2026-05-07 19:31 37.54380 -110.25814 19074 ft 224 kts 63°
2026-05-07 19:31 37.54978 -110.24001 19075 ft 224 kts 63°
2026-05-07 19:31 37.55579 -110.22184 19073 ft 225 kts 63°
2026-05-07 19:32 37.56178 -110.20361 19073 ft 225 kts 63°
2026-05-07 19:32 37.56777 -110.18543 19081 ft 225 kts 63°
2026-05-07 19:32 37.57378 -110.16724 19077 ft 225 kts 63°
2026-05-07 19:32 37.57985 -110.14885 19077 ft 225 kts 63°
2026-05-07 19:33 37.58586 -110.13059 19082 ft 226 kts 63°
2026-05-07 19:33 37.59188 -110.11225 19079 ft 227 kts 63°
2026-05-07 19:33 37.59793 -110.09386 19077 ft 227 kts 63°
2026-05-07 19:33 37.60399 -110.07542 19079 ft 228 kts 63°
2026-05-07 19:34 37.61006 -110.05696 19083 ft 228 kts 62°
2026-05-07 19:34 37.61612 -110.03844 19082 ft 228 kts 62°
2026-05-07 19:34 37.62210 -110.02019 19087 ft 228 kts 63°
2026-05-07 19:34 37.62827 -110.00143 19085 ft 229 kts 63°
2026-05-07 19:35 37.63434 -109.98287 19082 ft 229 kts 62°
2026-05-07 19:35 37.64034 -109.96460 19077 ft 225 kts 62°
2026-05-07 19:35 37.64615 -109.94675 19070 ft 215 kts 62°
2026-05-07 19:35 37.65174 -109.92962 19078 ft 208 kts 62°
2026-05-07 19:36 37.65720 -109.91301 19076 ft 202 kts 62°
2026-05-07 19:36 37.66252 -109.89681 19076 ft 197 kts 61°
2026-05-07 19:36 37.66773 -109.88091 19079 ft 194 kts 62°
2026-05-07 19:36 37.67290 -109.86505 19084 ft 198 kts 62°
2026-05-07 19:37 37.67824 -109.84870 19088 ft 204 kts 62°
2026-05-07 19:37 37.68369 -109.83202 19098 ft 207 kts 62°
2026-05-07 19:37 37.68918 -109.81508 19098 ft 210 kts 62°
2026-05-07 19:37 37.69474 -109.79795 19112 ft 211 kts 62°
2026-05-07 19:38 37.70032 -109.78068 19090 ft 213 kts 62°
2026-05-07 19:38 37.70595 -109.76341 19091 ft 212 kts 62°
2026-05-07 19:38 37.71158 -109.74622 19093 ft 212 kts 62°
2026-05-07 19:38 37.71715 -109.72896 19095 ft 212 kts 62°
2026-05-07 19:39 37.72272 -109.71175 19096 ft 212 kts 62°
2026-05-07 19:39 37.72835 -109.69450 19096 ft 213 kts 62°
2026-05-07 19:39 37.73396 -109.67717 19167 ft 213 kts 62°
2026-05-07 19:39 37.73955 -109.65981 19171 ft 214 kts 62°
2026-05-07 19:40 37.74520 -109.64240 19175 ft 215 kts 62°
2026-05-07 19:40 37.75086 -109.62490 19172 ft 215 kts 62°
2026-05-07 19:40 37.75648 -109.60745 19170 ft 214 kts 62°
2026-05-07 19:40 37.76212 -109.59005 19175 ft 215 kts 62°
2026-05-07 19:41 37.76777 -109.57256 19173 ft 215 kts 62°
2026-05-07 19:41 37.77342 -109.55506 19173 ft 215 kts 62°
2026-05-07 19:41 37.77908 -109.53748 19163 ft 216 kts 62°
2026-05-07 19:41 37.78474 -109.51989 19167 ft 216 kts 62°
2026-05-07 19:42 37.79043 -109.50226 19168 ft 217 kts 62°
2026-05-07 19:42 37.79610 -109.48462 19163 ft 217 kts 62°
2026-05-07 19:42 37.80204 -109.46720 19142 ft 213 kts 54°
2026-05-07 19:42 37.81183 -109.45447 19143 ft 197 kts 28°
2026-05-07 19:43 37.82359 -109.44554 19141 ft 198 kts 26°
2026-05-07 19:43 37.83526 -109.43669 19135 ft 198 kts 26°
2026-05-07 19:43 37.84725 -109.42755 19130 ft 199 kts 26°
2026-05-07 19:43 37.85894 -109.41868 19126 ft 199 kts 26°
2026-05-07 19:44 37.87079 -109.40968 19120 ft 199 kts 26°
2026-05-07 19:44 37.88266 -109.40066 19114 ft 199 kts 26°
2026-05-07 19:44 37.89457 -109.39159 19108 ft 200 kts 26°
2026-05-07 19:44 37.90649 -109.38252 19102 ft 200 kts 26°
2026-05-07 19:45 37.91843 -109.37342 19099 ft 201 kts 26°
2026-05-07 19:45 37.93040 -109.36431 19092 ft 201 kts 26°
2026-05-07 19:45 37.94235 -109.35520 19091 ft 201 kts 26°
2026-05-07 19:45 37.95430 -109.34610 19094 ft 200 kts 26°
2026-05-07 19:46 37.96626 -109.33697 19092 ft 201 kts 26°
2026-05-07 19:46 37.97824 -109.32784 19089 ft 201 kts 26°
2026-05-07 19:46 37.99021 -109.31869 19088 ft 201 kts 26°
2026-05-07 19:46 38.00219 -109.30955 19090 ft 201 kts 26°
2026-05-07 19:47 38.01415 -109.30042 19086 ft 201 kts 26°
2026-05-07 19:47 38.02611 -109.29128 19087 ft 201 kts 26°
2026-05-07 19:47 38.03804 -109.28216 19089 ft 200 kts 26°
2026-05-07 19:47 38.04998 -109.27303 19087 ft 200 kts 26°
2026-05-07 19:48 38.06194 -109.26389 19093 ft 201 kts 26°
2026-05-07 19:48 38.07395 -109.25468 19088 ft 202 kts 26°
2026-05-07 19:48 38.08597 -109.24549 19088 ft 202 kts 26°
2026-05-07 19:48 38.09795 -109.23630 19087 ft 201 kts 26°
2026-05-07 19:49 38.10983 -109.22704 19094 ft 202 kts 29°
2026-05-07 19:49 38.12139 -109.21688 19088 ft 202 kts 27°
2026-05-07 19:49 38.13319 -109.20727 19087 ft 202 kts 27°
2026-05-07 19:49 38.14494 -109.19747 19090 ft 203 kts 28°
2026-05-07 19:50 38.15669 -109.18753 19091 ft 203 kts 28°
2026-05-07 19:50 38.16843 -109.17758 19092 ft 203 kts 28°
2026-05-07 19:50 38.18016 -109.16767 19091 ft 202 kts 28°
2026-05-07 19:50 38.19188 -109.15775 19091 ft 203 kts 28°
2026-05-07 19:51 38.20362 -109.14782 19086 ft 203 kts 28°
2026-05-07 19:51 38.21536 -109.13787 19098 ft 203 kts 27°
2026-05-07 19:51 38.22713 -109.12792 19095 ft 203 kts 28°
2026-05-07 19:51 38.23886 -109.11797 19100 ft 202 kts 28°
2026-05-07 19:52 38.25060 -109.10804 19095 ft 203 kts 28°
2026-05-07 19:52 38.26236 -109.09808 19091 ft 203 kts 28°
2026-05-07 19:52 38.27410 -109.08811 19092 ft 203 kts 28°
2026-05-07 19:52 38.28585 -109.07814 19091 ft 203 kts 28°
2026-05-07 19:53 38.29762 -109.06815 19090 ft 204 kts 28°
2026-05-07 19:53 38.30943 -109.05812 19091 ft 204 kts 28°
2026-05-07 19:53 38.32129 -109.04804 19092 ft 205 kts 28°
2026-05-07 19:53 38.33319 -109.03790 19093 ft 206 kts 28°
2026-05-07 19:54 38.34510 -109.02779 19090 ft 205 kts 28°
2026-05-07 19:54 38.35696 -109.01764 19088 ft 205 kts 28°
2026-05-07 19:54 38.36883 -109.00762 19091 ft 204 kts 28°
2026-05-07 19:54 38.38060 -108.99758 19090 ft 204 kts 28°
2026-05-07 19:55 38.38840 -108.99095 19091 ft 203 kts 28°
2026-05-07 19:55 38.40017 -108.98094 19092 ft 204 kts 28°
2026-05-07 19:55 38.41196 -108.97088 19090 ft 204 kts 28°
2026-05-07 19:55 38.42375 -108.96082 19091 ft 204 kts 28°
2026-05-07 19:56 38.43554 -108.95077 19094 ft 204 kts 28°
2026-05-07 19:56 38.44738 -108.94066 19091 ft 205 kts 28°
2026-05-07 19:56 38.45925 -108.93052 19094 ft 205 kts 28°
2026-05-07 19:56 38.47109 -108.92042 19098 ft 205 kts 28°
2026-05-07 19:57 38.48288 -108.91033 19101 ft 204 kts 27°
2026-05-07 19:57 38.49469 -108.90023 19101 ft 204 kts 27°
2026-05-07 19:57 38.50651 -108.89015 19104 ft 205 kts 27°
2026-05-07 19:57 38.51843 -108.87998 19105 ft 206 kts 27°
2026-05-07 19:58 38.53035 -108.86974 19107 ft 207 kts 27°
2026-05-07 19:58 38.54229 -108.85951 19104 ft 206 kts 27°
2026-05-07 19:58 38.55419 -108.84933 19101 ft 205 kts 27°
2026-05-07 19:58 38.56602 -108.83919 19097 ft 205 kts 27°
2026-05-07 19:59 38.57786 -108.82905 19096 ft 205 kts 27°
2026-05-07 19:59 38.58972 -108.81889 19097 ft 206 kts 27°
2026-05-07 19:59 38.60158 -108.80871 19097 ft 205 kts 27°
2026-05-07 19:59 38.61344 -108.79854 19095 ft 205 kts 27°
2026-05-07 20:00 38.62530 -108.78836 19102 ft 205 kts 27°
2026-05-07 20:00 38.63718 -108.77816 19101 ft 206 kts 27°
2026-05-07 20:00 38.64907 -108.76794 19109 ft 206 kts 27°
2026-05-07 20:00 38.66101 -108.75768 19114 ft 207 kts 27°
2026-05-07 20:01 38.67299 -108.74738 19109 ft 208 kts 28°
2026-05-07 20:01 38.68502 -108.73700 19108 ft 208 kts 28°
2026-05-07 20:01 38.69702 -108.72671 19106 ft 207 kts 27°
2026-05-07 20:01 38.70900 -108.71641 19100 ft 208 kts 27°
2026-05-07 20:02 38.72099 -108.70613 19104 ft 208 kts 28°
2026-05-07 20:02 38.73282 -108.69584 19107 ft 208 kts 28°
2026-05-07 20:02 38.74481 -108.68548 19105 ft 208 kts 27°
2026-05-07 20:02 38.75681 -108.67518 19103 ft 208 kts 27°
2026-05-07 20:03 38.76878 -108.66486 19102 ft 207 kts 27°
2026-05-07 20:03 38.78078 -108.65449 19098 ft 208 kts 28°
2026-05-07 20:03 38.79283 -108.64410 19101 ft 209 kts 27°
2026-05-07 20:03 38.80365 -108.63137 19125 ft 220 kts 52°
2026-05-07 20:04 38.80979 -108.61294 19117 ft 228 kts 64°
2026-05-07 20:04 38.81531 -108.59382 19115 ft 229 kts 64°
2026-05-07 20:04 38.82091 -108.57473 19117 ft 229 kts 64°
2026-05-07 20:04 38.82657 -108.55570 19112 ft 228 kts 64°
2026-05-07 20:05 38.83219 -108.53670 19113 ft 228 kts 64°
2026-05-07 20:05 38.83780 -108.51766 19116 ft 229 kts 64°
2026-05-07 20:05 38.84345 -108.49851 19112 ft 229 kts 64°
2026-05-07 20:05 38.84912 -108.47939 19119 ft 230 kts 64°
2026-05-07 20:06 38.85472 -108.46022 19113 ft 229 kts 64°
2026-05-07 20:06 38.86032 -108.44121 19115 ft 227 kts 64°
2026-05-07 20:06 38.86590 -108.42229 19125 ft 227 kts 64°
2026-05-07 20:06 38.87146 -108.40340 19119 ft 226 kts 63°
2026-05-07 20:07 38.87701 -108.38452 19116 ft 226 kts 64°
2026-05-07 20:07 38.88255 -108.36566 19115 ft 226 kts 64°
2026-05-07 20:07 38.88808 -108.34682 19116 ft 226 kts 64°
2026-05-07 20:07 38.89361 -108.32798 19118 ft 226 kts 64°
2026-05-07 20:08 38.89913 -108.30913 19126 ft 225 kts 64°
2026-05-07 20:08 38.90464 -108.29030 19126 ft 226 kts 64°
2026-05-07 20:08 38.91017 -108.27142 19127 ft 226 kts 64°
2026-05-07 20:08 38.91569 -108.25250 19132 ft 226 kts 64°
2026-05-07 20:09 38.92123 -108.23359 19135 ft 227 kts 64°
2026-05-07 20:09 38.92678 -108.21458 19138 ft 227 kts 64°
2026-05-07 20:09 38.93232 -108.19553 19137 ft 228 kts 64°
2026-05-07 20:10 38.94343 -108.15745 19142 ft 228 kts 64°
2026-05-07 20:10 38.94899 -108.13836 19141 ft 228 kts 64°
2026-05-07 20:10 38.95454 -108.11922 19141 ft 228 kts 64°
2026-05-07 20:10 38.96009 -108.10016 19138 ft 227 kts 64°
2026-05-07 20:11 38.96559 -108.08118 19136 ft 226 kts 64°
2026-05-07 20:11 38.97105 -108.06237 19136 ft 223 kts 64°
2026-05-07 20:11 38.97647 -108.04373 19133 ft 223 kts 64°
2026-05-07 20:11 38.98188 -108.02507 19135 ft 223 kts 64°
2026-05-07 20:12 38.98731 -108.00631 19142 ft 224 kts 64°
2026-05-07 20:12 38.99271 -107.98752 19141 ft 225 kts 64°
2026-05-07 20:12 38.99817 -107.96873 19136 ft 224 kts 64°
2026-05-07 20:12 39.00360 -107.95002 19133 ft 223 kts 63°
2026-05-07 20:13 39.00898 -107.93135 19133 ft 223 kts 64°
2026-05-07 20:13 39.01433 -107.91267 19132 ft 223 kts 64°
2026-05-07 20:13 39.01974 -107.89395 19129 ft 224 kts 64°
2026-05-07 20:13 39.02516 -107.87517 19135 ft 223 kts 64°
2026-05-07 20:14 39.03054 -107.85646 19135 ft 223 kts 64°
2026-05-07 20:14 39.03593 -107.83773 19134 ft 224 kts 64°
2026-05-07 20:14 39.04133 -107.81891 19134 ft 225 kts 64°
2026-05-07 20:14 39.04673 -107.80008 19131 ft 225 kts 64°
2026-05-07 20:15 39.05214 -107.78124 19125 ft 225 kts 64°
2026-05-07 20:15 39.05751 -107.76256 19124 ft 226 kts 64°
2026-05-07 20:15 39.06301 -107.74335 19137 ft 226 kts 65°
2026-05-07 20:15 39.06846 -107.72431 19135 ft 227 kts 65°
2026-05-07 20:16 39.07384 -107.70551 19127 ft 227 kts 65°
2026-05-07 20:16 39.07927 -107.68649 19125 ft 226 kts 65°
2026-05-07 20:16 39.08470 -107.66753 19120 ft 226 kts 65°
2026-05-07 20:16 39.09011 -107.64860 19119 ft 225 kts 65°
2026-05-07 20:17 39.09550 -107.62971 19120 ft 225 kts 65°
2026-05-07 20:17 39.10088 -107.61081 19119 ft 225 kts 65°
2026-05-07 20:17 39.10629 -107.59195 19100 ft 225 kts 64°
2026-05-07 20:17 39.11184 -107.57315 19099 ft 225 kts 64°
2026-05-07 20:18 39.11739 -107.55431 19108 ft 225 kts 64°
2026-05-07 20:18 39.12291 -107.53547 19107 ft 225 kts 64°
2026-05-07 20:18 39.12841 -107.51662 19106 ft 225 kts 64°
2026-05-07 20:18 39.13392 -107.49777 19103 ft 225 kts 64°
2026-05-07 20:19 39.13944 -107.47889 19100 ft 225 kts 64°
2026-05-07 20:19 39.14495 -107.46000 19087 ft 225 kts 64°
2026-05-07 20:19 39.15046 -107.44111 19094 ft 225 kts 64°
2026-05-07 20:19 39.15598 -107.42219 19091 ft 226 kts 64°
2026-05-07 20:20 39.16097 -107.40296 19108 ft 230 kts 76°
2026-05-07 20:20 39.16122 -107.38200 19100 ft 237 kts 89°
2026-05-07 20:20 39.16081 -107.36074 19093 ft 237 kts 88°
2026-05-07 20:20 39.16054 -107.33957 19097 ft 235 kts 88°
2026-05-07 20:21 39.16029 -107.31857 19082 ft 234 kts 88°
2026-05-07 20:21 39.16002 -107.29757 19041 ft 236 kts 88°
2026-05-07 20:21 39.15974 -107.27632 18988 ft 239 kts 88°
2026-05-07 20:21 39.15944 -107.25483 18877 ft 242 kts 88°
2026-05-07 20:22 39.15913 -107.23307 18804 ft 244 kts 88°
2026-05-07 20:22 39.15881 -107.21118 18735 ft 245 kts 88°
2026-05-07 20:22 39.15851 -107.18910 18615 ft 248 kts 89°
2026-05-07 20:22 39.15814 -107.16670 18448 ft 251 kts 89°
2026-05-07 20:23 39.15783 -107.14415 18279 ft 253 kts 88°
2026-05-07 20:23 39.15757 -107.12147 18101 ft 254 kts 89°
2026-05-07 20:23 39.15719 -107.09862 17914 ft 256 kts 89°
2026-05-07 20:23 39.15681 -107.07550 17700 ft 260 kts 89°
2026-05-07 20:24 39.15647 -107.05209 17478 ft 263 kts 89°
2026-05-07 20:24 39.15608 -107.02852 17236 ft 264 kts 89°
2026-05-07 20:24 39.15569 -107.00479 17025 ft 265 kts 90°
2026-05-07 20:24 39.15531 -106.98109 16761 ft 265 kts 90°
2026-05-07 20:25 39.15494 -106.95733 16569 ft 265 kts 90°
2026-05-07 20:25 39.15460 -106.93358 16344 ft 262 kts 89°
2026-05-07 20:25 39.15420 -106.91068 16393 ft 253 kts 90°
2026-05-07 20:25 39.15473 -106.88846 16397 ft 244 kts 78°
2026-05-07 20:26 39.16113 -106.86882 16525 ft 235 kts 52°
2026-05-07 20:26 39.17132 -106.85282 16549 ft 228 kts 45°
2026-05-07 20:26 39.18141 -106.83761 16548 ft 223 kts 45°
2026-05-07 20:26 39.19141 -106.82251 16598 ft 220 kts 45°
2026-05-07 20:27 39.20126 -106.80758 16695 ft 218 kts 45°
2026-05-07 20:27 39.21107 -106.79279 16740 ft 216 kts 46°
2026-05-07 20:27 39.22075 -106.77806 16767 ft 215 kts 45°
2026-05-07 20:27 39.23047 -106.76324 16695 ft 220 kts 46°
2026-05-07 20:28 39.24057 -106.74786 16498 ft 230 kts 46°
2026-05-07 20:28 39.25106 -106.73192 16140 ft 233 kts 46°
2026-05-07 20:28 39.26148 -106.71599 15691 ft 233 kts 46°
2026-05-07 20:28 39.27201 -106.70007 15239 ft 234 kts 46°
2026-05-07 20:29 39.28251 -106.68396 14877 ft 235 kts 44°
2026-05-07 20:29 39.29382 -106.66962 14751 ft 216 kts 26°
2026-05-07 20:29 39.30707 -106.66283 14656 ft 198 kts
2026-05-07 20:29 39.32033 -106.66269 14512 ft 186 kts 346°
2026-05-07 20:30 39.33234 -106.66767 14326 ft 178 kts 334°
2026-05-07 20:30 39.34379 -106.67355 14218 ft 177 kts 335°
2026-05-07 20:30 39.35539 -106.67949 14160 ft 182 kts 335°
2026-05-07 20:30 39.36723 -106.68542 14108 ft 183 kts 336°
2026-05-07 20:31 39.37895 -106.69159 13930 ft 180 kts 327°
2026-05-07 20:31 39.38754 -106.70303 13877 ft 177 kts 308°
2026-05-07 20:31 39.39510 -106.71541 13904 ft 177 kts 311°
2026-05-07 20:31 39.40299 -106.72767 13901 ft 176 kts 310°
2026-05-07 20:32 39.41066 -106.73989 13893 ft 175 kts 310°
2026-05-07 20:32 39.41819 -106.75213 13910 ft 175 kts 309°
2026-05-07 20:32 39.42579 -106.76428 13943 ft 168 kts 311°
2026-05-07 20:32 39.43369 -106.77535 13893 ft 167 kts 310°
2026-05-07 20:33 39.44045 -106.78807 13854 ft 173 kts 305°
2026-05-07 20:33 39.44793 -106.80040 13897 ft 176 kts 312°
2026-05-07 20:33 39.45599 -106.81255 13893 ft 179 kts 310°
2026-05-07 20:33 39.46399 -106.82492 13895 ft 180 kts 311°
2026-05-07 20:34 39.47262 -106.83659 13888 ft 180 kts 311°
2026-05-07 20:34 39.47641 -106.85162 13855 ft 183 kts 269°
2026-05-07 20:34 39.47041 -106.86605 13859 ft 197 kts 229°
2026-05-07 20:34 39.45834 -106.87501 13933 ft 201 kts 214°
2026-05-07 20:35 39.44562 -106.88267 13798 ft 204 kts 213°
2026-05-07 20:35 39.43249 -106.89029 13619 ft 213 kts 202°
2026-05-07 20:35 39.41866 -106.89630 13410 ft 204 kts 224°
2026-05-07 20:35 39.41137 -106.91090 13377 ft 192 kts 259°
2026-05-07 20:36 39.40852 -106.92772 13305 ft 192 kts 265°
2026-05-07 20:36 39.40362 -106.94374 13268 ft 192 kts 236°
2026-05-07 20:36 39.39295 -106.95390 13291 ft 200 kts 204°
2026-05-07 20:36 39.37863 -106.95382 13134 ft 218 kts 168°
2026-05-07 20:37 39.36458 -106.94462 12468 ft 235 kts 150°
2026-05-07 20:37 39.35114 -106.93290 12050 ft 235 kts 151°
2026-05-07 20:37 39.33768 -106.92165 11606 ft 225 kts 154°
2026-05-07 20:37 39.32453 -106.91134 11099 ft 221 kts 159°
2026-05-07 20:38 39.31055 -106.90462 10449 ft 211 kts 173°
2026-05-07 20:38 39.29755 -106.90030 10303 ft 177 kts 171°
2026-05-07 20:38 39.28699 -106.89565 10108 ft 142 kts 172°
2026-05-07 20:38 39.27812 -106.89159 9440 ft 132 kts 175°
2026-05-07 20:39 39.26943 -106.88910 8815 ft 133 kts 172°
2026-05-07 20:39 39.26009 -106.88587 8235 ft 136 kts 167°
2026-05-07 20:39 39.25167 -106.88184 7980 ft 123 kts 169°
2026-05-07 20:39 39.24378 -106.87854 7860 ft 114 kts 170°
2026-05-07 20:40 39.23644 -106.87506 7721 ft 112 kts 168°
2026-05-07 20:40 39.22930 -106.87187 7709 ft 98 kts 156°
2026-05-07 20:40 39.22406 -106.86927 7742 ft 57 kts 160°
2026-05-07 20:40 39.22315 -106.86874 7748 ft 4 kts 67°
2026-05-07 20:41 39.22335 -106.86808 7747 ft 4 kts 69°
2026-05-07 20:41 39.22332 -106.86775 7748 ft 4 kts 134°
2026-05-07 20:41 39.22281 -106.86748 7751 ft 7 kts 162°
2026-05-07 20:41 39.22262 -106.86721 7753 ft 7 kts 68°
2026-05-07 20:42 39.22287 -106.86700 7752 ft 4 kts 345°
2026-05-07 20:42 39.22308 -106.86708 7752 ft 1 kts 343°
2026-05-07 20:42 39.22316 -106.86712 7752 ft 0 kts 342°